Location: Newark
(7.0858°N, 171.3717°E)
Time: 02:01:46
(UTC+00:00)

Transit 4A - Pass Details

Date: 27 November 2020
Orbit: 864 x 980 km, 66.8° (Epoch: 20 January)

Event Time Altitude Azimuth Distance (km) Brightness Sun altitude
Rises 06:22:37 0° 357° (N) 3,608 10.8 -2.6°
Reaches altitude 10° 06:25:28 10° 7° (N) 2,646 10.0 -3.3°
Maximum altitude 06:30:51 32° 68° (ENE) 1,536 8.6 -4.6°
Drops below altitude 10° 06:36:06 10° 129° (SE) 2,577 9.9 -5.8°
Sets 06:38:50 0° 139° (SE) 3,501 10.7 -6.4°
